• In Portugal
  • List of Countries
  • For 7 days
  • Water Temperature
  • Satellite Maps
  • Weather Map
  • Weather Widgets
  • user-avatar
    Login

    Hourly Weather Snizhne

    Today, 16 October, Tuesday

    Time Temperature Precipitation Wind Pressure Humidity
    00:00 +15°C° 0 mm 2 mps 745 mmHg 65%
    01:00 +15°C° 0 mm 2 mps 745 mmHg 67%
    02:00 +14°C° 0 mm 2 mps 745 mmHg 70%
    03:00 +14°C° 0 mm 1 mps 745 mmHg 73%
    04:00 +14°C° 0 mm 2 mps 745 mmHg 75%
    05:00 +13°C° 0 mm 2 mps 745 mmHg 78%
    06:00 +13°C° 0 mm 2 mps 745 mmHg 80%
    07:00 +14°C° 0 mm 2 mps 745 mmHg 75%
    08:00 +15°C° 0 mm 2 mps 746 mmHg 71%
    09:00 +17°C° 0 mm 3 mps 746 mmHg 66%
    10:00 +18°C° 0 mm 3 mps 746 mmHg 59%
    11:00 +20°C° 0 mm 3 mps 746 mmHg 53%
    12:00 +22°C° 0 mm 4 mps 746 mmHg 46%
    13:00 +22°C° 0 mm 4 mps 746 mmHg 44%
    14:00 +24°C° 0 mm 3 mps 746 mmHg 41%
    15:00 +24°C° 0 mm 3 mps 745 mmHg 38%
    16:00 +22°C° 0 mm 3 mps 745 mmHg 43%
    17:00 +20°C° 0 mm 3 mps 745 mmHg 47%
    18:00 +19°C° 0 mm 2 mps 745 mmHg 51%
    19:00 +18°C° 0 mm 2 mps 745 mmHg 54%
    20:00 +17°C° 0 mm 2 mps 745 mmHg 56%
    21:00 +16°C° 0 mm 2 mps 745 mmHg 59%
    22:00 +16°C° 0 mm 2 mps 745 mmHg 61%
    23:00 +15°C° 0 mm 2 mps 745 mmHg 63%

    Tomorrow, 17 October, Wednesday

    Time Temperature Precipitation Wind Pressure Humidity
    00:00 +15°C° 0 mm 2 mps 745 mmHg 66%
    01:00 +14°C° 0 mm 2 mps 745 mmHg 68%
    02:00 +14°C° 0 mm 2 mps 744 mmHg 70%
    03:00 +14°C° 0 mm 2 mps 744 mmHg 72%
    04:00 +13°C° 0 mm 2 mps 744 mmHg 74%
    05:00 +13°C° 0 mm 2 mps 744 mmHg 75%
    06:00 +13°C° 0 mm 2 mps 744 mmHg 77%
    07:00 +14°C° 0 mm 2 mps 744 mmHg 72%
    08:00 +15°C° 0 mm 2 mps 744 mmHg 66%
    09:00 +16°C° 0 mm 2 mps 744 mmHg 61%
    10:00 +18°C° 0 mm 3 mps 744 mmHg 54%
    11:00 +20°C° 0 mm 3 mps 744 mmHg 47%
    12:00 +21°C° 0 mm 3 mps 744 mmHg 40%
    13:00 +22°C° 0 mm 3 mps 744 mmHg 38%
    14:00 +22°C° 0 mm 3 mps 744 mmHg 36%
    15:00 +24°C° 0 mm 3 mps 743 mmHg 33%
    16:00 +21°C° 0 mm 3 mps 743 mmHg 37%
    17:00 +20°C° 0 mm 3 mps 743 mmHg 41%
    18:00 +18°C° 0 mm 2 mps 743 mmHg 44%
    19:00 +18°C° 0 mm 2 mps 743 mmHg 46%
    20:00 +17°C° 0 mm 2 mps 743 mmHg 48%
    21:00 +16°C° 0 mm 2 mps 743 mmHg 50%
    22:00 +16°C° 0 mm 2 mps 743 mmHg 52%
    23:00 +15°C° 0 mm 2 mps 743 mmHg 53%

    Day after tomorrow, 18 October, Thursday

    Time Temperature Precipitation Wind Pressure Humidity
    00:00 +15°C° 0 mm 2 mps 743 mmHg 54%
    01:00 +14°C° 0 mm 2 mps 743 mmHg 56%
    02:00 +14°C° 0 mm 2 mps 743 mmHg 57%
    03:00 +14°C° 0 mm 2 mps 742 mmHg 58%
    04:00 +13°C° 0 mm 2 mps 742 mmHg 59%
    05:00 +13°C° 0 mm 2 mps 742 mmHg 60%
    06:00 +13°C° 0 mm 2 mps 742 mmHg 60%
    07:00 +14°C° 0 mm 2 mps 742 mmHg 57%
    08:00 +14°C° 0 mm 3 mps 742 mmHg 53%
    09:00 +16°C° 0 mm 3 mps 743 mmHg 50%
    10:00 +18°C° 0 mm 3 mps 743 mmHg 45%
    11:00 +19°C° 0 mm 4 mps 743 mmHg 40%
    12:00 +21°C° 0 mm 4 mps 743 mmHg 35%
    13:00 +22°C° 0 mm 4 mps 742 mmHg 33%
    14:00 +22°C° 0 mm 4 mps 742 mmHg 32%
    15:00 +23°C° 0 mm 5 mps 742 mmHg 31%
    16:00 +21°C° 0 mm 4 mps 741 mmHg 34%
    17:00 +20°C° 0 mm 4 mps 741 mmHg 38%
    18:00 +18°C° 0 mm 3 mps 741 mmHg 41%
    19:00 +17°C° 0 mm 3 mps 741 mmHg 43%
    20:00 +17°C° 0 mm 4 mps 741 mmHg 45%
    21:00 +15°C° 0 mm 4 mps 741 mmHg 47%
    22:00 +14°C° 0 mm 4 mps 741 mmHg 48%
    23:00 +14°C° 0 mm 4 mps 741 mmHg 50%

    19 October, Friday

    Time Temperature Precipitation Wind Pressure Humidity
    00:00 +13°C° 0 mm 3 mps 741 mmHg 51%
    01:00 +12°C° 0 mm 3 mps 741 mmHg 52%
    02:00 +12°C° 0 mm 3 mps 740 mmHg 53%
    03:00 +12°C° 0 mm 3 mps 740 mmHg 55%
    04:00 +11°C° 0 mm 3 mps 740 mmHg 57%
    05:00 +11°C° 0 mm 3 mps 740 mmHg 58%
    06:00 +10°C° 0 mm 3 mps 740 mmHg 60%
    07:00 +12°C° 0 mm 4 mps 740 mmHg 59%
    08:00 +13°C° 0 mm 5 mps 740 mmHg 57%
    09:00 +14°C° 0 mm 5 mps 740 mmHg 55%
    10:00 +15°C° 0 mm 5 mps 740 mmHg 50%
    11:00 +17°C° 0 mm 6 mps 739 mmHg 45%
    12:00 +20°C° 0 mm 6 mps 739 mmHg 40%
    13:00 +20°C° 0 mm 6 mps 739 mmHg 39%
    14:00 +21°C° 0 mm 6 mps 738 mmHg 37%
    15:00 +21°C° 0 mm 6 mps 738 mmHg 36%
    16:00 +20°C° 0 mm 5 mps 738 mmHg 40%
    17:00 +19°C° 0 mm 4 mps 737 mmHg 45%
    18:00 +17°C° 0 mm 3 mps 737 mmHg 50%
    19:00 +16°C° 0 mm 3 mps 737 mmHg 54%
    20:00 +16°C° 0 mm 3 mps 737 mmHg 58%
    21:00 +14°C° 0 mm 3 mps 737 mmHg 62%
    22:00 +14°C° 0 mm 3 mps 736 mmHg 66%
    23:00 +13°C° 0 mm 3 mps 736 mmHg 70%

    20 October, Saturday

    Time Temperature Precipitation Wind Pressure Humidity
    00:00 +13°C° 0 mm 3 mps 736 mmHg 74%
    01:00 +12°C° 0.1 mm 3 mps 736 mmHg 77%
    02:00 +13°C° 0.1 mm 2 mps 735 mmHg 79%
    03:00 +13°C° 0.1 mm 2 mps 735 mmHg 82%
    04:00 +13°C° 0.1 mm 2 mps 735 mmHg 83%
    05:00 +13°C° 0.1 mm 2 mps 735 mmHg 85%
    06:00 +13°C° 0.1 mm 2 mps 735 mmHg 87%
    07:00 +13°C° 0.1 mm 2 mps 735 mmHg 84%
    08:00 +14°C° 0.1 mm 2 mps 735 mmHg 81%
    09:00 +15°C° 0.1 mm 2 mps 735 mmHg 78%
    10:00 +16°C° 0 mm 2 mps 735 mmHg 70%
    11:00 +18°C° 0 mm 2 mps 735 mmHg 62%
    12:00 +19°C° 0 mm 2 mps 735 mmHg 55%
    13:00 +20°C° 0 mm 2 mps 735 mmHg 52%
    14:00 +20°C° 0 mm 2 mps 735 mmHg 49%
    15:00 +21°C° 0 mm 2 mps 735 mmHg 46%
    16:00 +20°C° 0 mm 2 mps 735 mmHg 49%
    17:00 +19°C° 0 mm 2 mps 735 mmHg 53%
    18:00 +18°C° 0 mm 1 mps 735 mmHg 57%
    19:00 +18°C° 0 mm 1 mps 735 mmHg 61%
    20:00 +16°C° 0 mm 1 mps 735 mmHg 64%
    21:00 +15°C° 0 mm 1 mps 735 mmHg 67%
    22:00 +15°C° 0 mm 1 mps 735 mmHg 69%
    23:00 +15°C° 0 mm 1 mps 735 mmHg 71%

    21 October, Sunday

    Time Temperature Precipitation Wind Pressure Humidity
    00:00 +14°C° 0 mm 1 mps 735 mmHg 74%
    01:00 +14°C° 0 mm 1 mps 735 mmHg 74%
    02:00 +14°C° 0 mm 1 mps 735 mmHg 75%
    03:00 +14°C° 0 mm 1 mps 735 mmHg 76%
    04:00 +14°C° 0 mm 1 mps 735 mmHg 77%
    05:00 +13°C° 0 mm 1 mps 735 mmHg 78%
    06:00 +13°C° 0 mm 1 mps 735 mmHg 79%
    07:00 +14°C° 0 mm 1 mps 735 mmHg 76%
    08:00 +15°C° 0 mm 1 mps 735 mmHg 73%
    09:00 +15°C° 0 mm 1 mps 735 mmHg 70%
    10:00 +18°C° 0 mm 1 mps 735 mmHg 64%
    11:00 +18°C° 0 mm 2 mps 736 mmHg 58%
    12:00 +19°C° 0 mm 2 mps 736 mmHg 53%
    13:00 +19°C° 0.1 mm 3 mps 736 mmHg 52%
    14:00 +19°C° 0.1 mm 3 mps 735 mmHg 50%
    15:00 +19°C° 0.1 mm 3 mps 735 mmHg 49%
    16:00 +18°C° 0 mm 3 mps 735 mmHg 52%
    17:00 +17°C° 0 mm 3 mps 736 mmHg 55%
    18:00 +16°C° 0 mm 2 mps 736 mmHg 58%
    19:00 +14°C° 0 mm 3 mps 736 mmHg 62%
    20:00 +14°C° 0 mm 3 mps 736 mmHg 67%
    21:00 +13°C° 0 mm 3 mps 736 mmHg 71%
    22:00 +12°C° 0 mm 3 mps 736 mmHg 75%
    23:00 +11°C° 0 mm 3 mps 736 mmHg 79%
    Show more